GFSNW_prec_precacc12_330.txt.gz
Total_Precipitation_Accumulation
0.00 0.01 0.01 0.01 0.01 0.00 0.00 0.00 0.00 0.00 0.00 0.00 0.00 0.00 0.00 0.00 0.00 0.00 0.00 0.00 0.00 0.00 0.00 0.00 0.00 0.00 0.00 0.00 0.00 0.00 0.01 0.04 0.01 0.02 0.03 0.03 0.08 0.08 0.09 0.12 0.27 0.08 0.06 0.08
0.00 0.01 0.01 0.02 0.03 0.00 0.00 0.00 0.00 0.00 0.00 0.00 0.00 0.00 0.00 0.00 0.00 0.00 0.00 0.00 0.00 0.00 0.00 0.01 0.00 0.00 0.00 0.00 0.00 0.02 0.02 0.01 0.01 0.00 0.01 0.01 0.01 0.03 0.09 0.13 0.25 0.15 0.09 0.07
0.00 0.01 0.01 0.02 0.05 0.01 0.00 0.00 0.00 0.00 0.00 0.00 0.00 0.00 0.00 0.00 0.00 0.00 0.00 0.00 0.00 0.01 0.00 0.00 0.00 0.00 0.00 0.00 0.00 0.01 0.01 0.00 0.01 0.02 0.04 0.03 0.01 0.01 0.03 0.07 0.12 0.16 0.07 0.03
0.00 0.01 0.01 0.02 0.05 0.00 0.00 0.00 0.00 0.00 0.00 0.00 0.00 0.01 0.00 0.00 0.00 0.00 0.00 0.00 0.00 0.01 0.02 0.00 0.00 0.00 0.00 0.00 0.00 0.00 0.00 0.00 0.00 0.00 0.02 0.01 0.01 0.01 0.02 0.04 0.08 0.12 0.12 0.04
0.00 0.01 0.01 0.01 0.07 0.01 0.00 0.01 0.03 0.04 0.01 0.00 0.00 0.00 0.00 0.00 0.01 0.00 0.00 0.00 0.00 0.00 0.02 0.00 0.00 0.00 0.01 0.00 0.00 0.00 0.00 0.00 0.00 0.01 0.02 0.04 0.03 0.01 0.01 0.03 0.03 0.04 0.08 0.08
0.00 0.00 0.01 0.02 0.08 0.06 0.02 0.03 0.06 0.07 0.02 0.00 0.01 0.00 0.00 0.00 0.02 0.01 0.00 0.00 0.01 0.00 0.00 0.00 0.00 0.00 0.00 0.00 0.03 0.03 0.02 0.00 0.00 0.00 0.02 0.03 0.04 0.02 0.01 0.03 0.04 0.04 0.04 0.07
0.00 0.01 0.01 0.02 0.03 0.14 0.08 0.05 0.05 0.11 0.05 0.01 0.01 0.01 0.01 0.00 0.00 0.01 0.00 0.00 0.02 0.00 0.00 0.00 0.00 0.00 0.00 0.00 0.01 0.01 0.01 0.01 0.00 0.00 0.00 0.01 0.01 0.01 0.01 0.02 0.05 0.05 0.06 0.07
0.01 0.02 0.01 0.02 0.04 0.12 0.13 0.06 0.09 0.16 0.11 0.01 0.00 0.00 0.01 0.01 0.00 0.00 0.00 0.00 0.00 0.00 0.00 0.00 0.00 0.00 0.00 0.00 0.00 0.00 0.01 0.01 0.00 0.00 0.00 0.00 0.01 0.02 0.02 0.03 0.04 0.04 0.04 0.04
0.02 0.01 0.02 0.03 0.08 0.15 0.20 0.08 0.12 0.23 0.19 0.03 0.00 0.01 0.02 0.03 0.03 0.01 0.00 0.00 0.00 0.00 0.00 0.00 0.00 0.00 0.00 0.00 0.00 0.00 0.00 0.00 0.00 0.00 0.01 0.01 0.01 0.01 0.01 0.03 0.04 0.03 0.03 0.02
0.03 0.03 0.04 0.08 0.11 0.19 0.30 0.16 0.11 0.31 0.28 0.03 0.00 0.03 0.08 0.07 0.05 0.05 0.00 0.00 0.00 0.00 0.00 0.00 0.00 0.00 0.00 0.00 0.00 0.00 0.00 0.00 0.01 0.01 0.02 0.01 0.00 0.00 0.01 0.02 0.02 0.01 0.02 0.02
0.02 0.03 0.07 0.11 0.16 0.24 0.42 0.29 0.12 0.34 0.40 0.10 0.00 0.00 0.03 0.13 0.10 0.10 0.06 0.04 0.01 0.01 0.01 0.00 0.00 0.00 0.00 0.00 0.00 0.00 0.00 0.00 0.01 0.01 0.03 0.01 0.00 0.00 0.01 0.01 0.01 0.01 0.01 0.02
0.04 0.09 0.15 0.18 0.24 0.34 0.47 0.36 0.14 0.34 0.57 0.22 0.03 0.01 0.00 0.05 0.09 0.15 0.13 0.05 0.03 0.03 0.02 0.02 0.04 0.01 0.02 0.01 0.02 0.01 0.01 0.01 0.01 0.01 0.01 0.01 0.01 0.00 0.01 0.01 0.01 0.01 0.01 0.01
0.13 0.23 0.26 0.29 0.34 0.40 0.49 0.38 0.26 0.42 0.51 0.23 0.10 0.04 0.01 0.03 0.06 0.11 0.18 0.11 0.09 0.10 0.11 0.10 0.05 0.03 0.03 0.03 0.03 0.02 0.02 0.01 0.03 0.03 0.02 0.01 0.02 0.01 0.01 0.01 0.01 0.01 0.01 0.01
0.32 0.35 0.37 0.42 0.42 0.42 0.43 0.38 0.26 0.36 0.50 0.32 0.08 0.00 0.01 0.00 0.01 0.06 0.10 0.11 0.09 0.10 0.07 0.05 0.04 0.04 0.07 0.05 0.03 0.03 0.03 0.01 0.02 0.04 0.01 0.02 0.03 0.01 0.01 0.00 0.00 0.00 0.00 0.01
0.45 0.48 0.54 0.55 0.51 0.47 0.36 0.32 0.26 0.19 0.33 0.39 0.18 0.06 0.04 0.00 0.02 0.06 0.07 0.06 0.05 0.02 0.02 0.02 0.03 0.03 0.03 0.04 0.02 0.02 0.01 0.02 0.01 0.03 0.02 0.02 0.02 0.01 0.01 0.00 0.00 0.00 0.01 0.01
0.56 0.59 0.61 0.61 0.56 0.45 0.31 0.47 0.23 0.14 0.27 0.37 0.19 0.09 0.02 0.00 0.01 0.03 0.03 0.01 0.01 0.01 0.02 0.03 0.03 0.03 0.04 0.02 0.01 0.02 0.01 0.02 0.02 0.01 0.00 0.01 0.02 0.01 0.01 0.01 0.01 0.01 0.02 0.01
0.65 0.63 0.66 0.64 0.56 0.27 0.30 0.41 0.23 0.20 0.27 0.26 0.18 0.14 0.03 0.00 0.01 0.02 0.01 0.00 0.00 0.01 0.02 0.02 0.02 0.01 0.01 0.01 0.01 0.01 0.00 0.00 0.02 0.01 0.00 0.00 0.01 0.01 0.00 0.01 0.01 0.01 0.01 0.01
0.73 0.77 0.77 0.73 0.55 0.32 0.27 0.24 0.31 0.27 0.26 0.19 0.16 0.12 0.06 0.04 0.05 0.03 0.01 0.02 0.01 0.01 0.01 0.01 0.01 0.00 0.00 0.01 0.01 0.00 0.00 0.00 0.01 0.00 0.01 0.02 0.00 0.00 0.00 0.01 0.01 0.01 0.00 0.00
0.91 0.93 0.75 0.65 0.47 0.30 0.21 0.23 0.23 0.18 0.15 0.18 0.14 0.10 0.14 0.06 0.03 0.02 0.00 0.00 0.01 0.01 0.01 0.01 0.00 0.00 0.00 0.01 0.00 0.00 0.00 0.01 0.01 0.00 0.00 0.00 0.00 0.00 0.00 0.00 0.00 0.01 0.00 0.01
0.93 0.79 0.76 0.64 0.35 0.25 0.24 0.23 0.16 0.12 0.09 0.07 0.06 0.08 0.11 0.05 0.02 0.01 0.00 0.00 0.01 0.01 0.01 0.00 0.00 0.01 0.01 0.00 0.00 0.00 0.00 0.00 0.00 0.00 0.00 0.00 0.00 0.00 0.00 0.01 0.01 0.02 0.02 0.02
0.80 0.79 0.64 0.58 0.44 0.30 0.22 0.18 0.09 0.06 0.06 0.06 0.02 0.02 0.04 0.02 0.02 0.02 0.01 0.00 0.01 0.01 0.01 0.00 0.00 0.00 0.00 0.00 0.00 0.00 0.00 0.00 0.00 0.01 0.01 0.01 0.02 0.01 0.01 0.00 0.01 0.01 0.02 0.02
0.68 0.63 0.57 0.46 0.34 0.27 0.17 0.11 0.04 0.05 0.07 0.05 0.02 0.03 0.03 0.02 0.02 0.01 0.01 0.01 0.01 0.01 0.01 0.00 0.00 0.00 0.00 0.00 0.00 0.00 0.00 0.00 0.00 0.00 0.00 0.00 0.01 0.01 0.01 0.02 0.01 0.01 0.02 0.02
0.88 0.72 0.53 0.32 0.22 0.17 0.09 0.04 0.04 0.08 0.09 0.06 0.05 0.04 0.02 0.01 0.01 0.01 0.00 0.00 0.01 0.01 0.00 0.00 0.00 0.00 0.00 0.00 0.00 0.00 0.00 0.00 0.00 0.00 0.00 0.00 0.00 0.00 0.01 0.01 0.01 0.01 0.01 0.02
0.97 0.65 0.42 0.22 0.17 0.08 0.07 0.09 0.11 0.14 0.11 0.07 0.04 0.02 0.01 0.01 0.00 0.00 0.00 0.00 0.00 0.00 0.00 0.00 0.00 0.00 0.00 0.00 0.00 0.00 0.00 0.00 0.00 0.00 0.00 0.00 0.00 0.00 0.00 0.01 0.01 0.02 0.01 0.01
0.86 0.56 0.30 0.15 0.06 0.09 0.15 0.16 0.14 0.12 0.08 0.04 0.01 0.01 0.00 0.00 0.00 0.00 0.00 0.00 0.00 0.00 0.00 0.00 0.00 0.00 0.00 0.00 0.00 0.00 0.00 0.00 0.00 0.00 0.00 0.00 0.00 0.00 0.00 0.01 0.01 0.02 0.02 0.02
0.62 0.39 0.19 0.14 0.16 0.22 0.20 0.16 0.12 0.08 0.04 0.01 0.00 0.00 0.00 0.00 0.00 0.00 0.00 0.00 0.00 0.00 0.00 0.00 0.00 0.00 0.00 0.00 0.00 0.00 0.00 0.00 0.00 0.00 0.00 0.00 0.00 0.00 0.00 0.01 0.02 0.03 0.02 0.02
0.36 0.16 0.15 0.20 0.23 0.21 0.17 0.11 0.07 0.03 0.01 0.00 0.00 0.00 0.00 0.00 0.00 0.00 0.00 0.00 0.00 0.00 0.00 0.00 0.00 0.00 0.00 0.00 0.00 0.00 0.00 0.00 0.00 0.00 0.00 0.00 0.00 0.00 0.00 0.01 0.01 0.02 0.02 0.01

GFSNW_prec_precacc12_333.txt.gz
Total_Precipitation_Accumulation
0.00 0.00 0.01 0.02 0.01 0.00 0.00 0.00 0.00 0.00 0.00 0.00 0.00 0.00 0.00 0.00 0.00 0.00 0.00 0.00 0.00 0.00 0.00 0.00 0.00 0.00 0.00 0.00 0.00 0.00 0.01 0.03 0.01 0.00 0.01 0.00 0.02 0.03 0.03 0.07 0.11 0.07 0.08 0.09
0.00 0.00 0.00 0.01 0.02 0.01 0.00 0.00 0.00 0.00 0.00 0.00 0.00 0.00 0.00 0.00 0.00 0.00 0.00 0.00 0.00 0.00 0.00 0.00 0.00 0.00 0.00 0.00 0.00 0.01 0.02 0.01 0.00 0.00 0.01 0.01 0.01 0.01 0.04 0.08 0.16 0.09 0.08 0.06
0.00 0.00 0.01 0.02 0.03 0.01 0.00 0.00 0.00 0.00 0.00 0.00 0.00 0.00 0.00 0.00 0.00 0.00 0.00 0.00 0.00 0.00 0.00 0.00 0.00 0.00 0.00 0.00 0.00 0.01 0.02 0.01 0.00 0.01 0.03 0.02 0.01 0.00 0.00 0.04 0.09 0.11 0.04 0.02
0.00 0.00 0.01 0.01 0.03 0.00 0.00 0.00 0.00 0.00 0.00 0.00 0.00 0.01 0.00 0.00 0.00 0.00 0.00 0.00 0.00 0.01 0.01 0.00 0.00 0.00 0.00 0.00 0.00 0.00 0.00 0.01 0.00 0.00 0.01 0.01 0.01 0.00 0.01 0.01 0.05 0.08 0.10 0.02
0.00 0.00 0.01 0.01 0.04 0.01 0.00 0.00 0.01 0.03 0.01 0.00 0.00 0.00 0.00 0.00 0.01 0.00 0.00 0.00 0.00 0.00 0.01 0.00 0.00 0.00 0.01 0.00 0.00 0.00 0.01 0.01 0.00 0.00 0.01 0.02 0.03 0.01 0.00 0.01 0.01 0.02 0.06 0.06
0.01 0.01 0.01 0.01 0.05 0.06 0.01 0.01 0.03 0.04 0.02 0.00 0.01 0.00 0.00 0.00 0.03 0.02 0.00 0.00 0.01 0.00 0.00 0.00 0.00 0.00 0.00 0.00 0.02 0.03 0.05 0.02 0.01 0.00 0.00 0.01 0.03 0.01 0.01 0.01 0.02 0.02 0.02 0.04
0.01 0.01 0.01 0.02 0.02 0.13 0.10 0.05 0.09 0.16 0.08 0.01 0.01 0.00 0.01 0.00 0.00 0.02 0.00 0.00 0.03 0.01 0.00 0.00 0.00 0.00 0.00 0.00 0.01 0.01 0.03 0.02 0.01 0.00 0.00 0.01 0.01 0.01 0.00 0.01 0.02 0.03 0.03 0.03
0.01 0.01 0.01 0.02 0.04 0.11 0.14 0.13 0.20 0.28 0.19 0.02 0.00 0.00 0.00 0.01 0.00 0.01 0.03 0.00 0.01 0.00 0.00 0.00 0.00 0.00 0.00 0.00 0.00 0.00 0.01 0.01 0.00 0.00 0.00 0.00 0.01 0.01 0.01 0.01 0.02 0.03 0.02 0.02
0.01 0.01 0.02 0.03 0.08 0.15 0.25 0.18 0.23 0.42 0.35 0.07 0.00 0.02 0.03 0.04 0.06 0.06 0.01 0.00 0.00 0.00 0.01 0.01 0.01 0.00 0.00 0.00 0.00 0.00 0.00 0.01 0.01 0.00 0.01 0.01 0.00 0.01 0.01 0.01 0.03 0.02 0.02 0.01
0.04 0.05 0.06 0.09 0.13 0.19 0.35 0.28 0.20 0.58 0.52 0.09 0.00 0.05 0.11 0.12 0.14 0.15 0.05 0.01 0.01 0.01 0.03 0.03 0.01 0.00 0.00 0.00 0.00 0.00 0.00 0.00 0.02 0.01 0.02 0.02 0.00 0.00 0.00 0.01 0.01 0.00 0.01 0.02
0.09 0.11 0.14 0.17 0.19 0.27 0.56 0.51 0.27 0.55 0.69 0.24 0.02 0.01 0.04 0.18 0.21 0.20 0.18 0.15 0.06 0.06 0.04 0.02 0.00 0.00 0.00 0.00 0.00 0.00 0.00 0.00 0.01 0.02 0.04 0.02 0.00 0.00 0.01 0.01 0.00 0.01 0.01 0.01
0.16 0.21 0.27 0.29 0.34 0.48 0.79 0.78 0.34 0.49 0.89 0.43 0.06 0.02 0.00 0.05 0.14 0.27 0.31 0.14 0.06 0.06 0.05 0.04 0.06 0.02 0.02 0.01 0.02 0.00 0.01 0.00 0.00 0.00 0.01 0.01 0.00 0.00 0.00 0.00 0.00 0.00 0.01 0.01
0.25 0.35 0.39 0.42 0.50 0.62 0.81 0.76 0.53 0.66 0.87 0.49 0.20 0.07 0.02 0.04 0.11 0.25 0.35 0.26 0.16 0.16 0.09 0.11 0.08 0.06 0.03 0.03 0.02 0.01 0.02 0.00 0.02 0.02 0.02 0.01 0.01 0.01 0.00 0.01 0.01 0.00 0.01 0.01
0.38 0.43 0.47 0.53 0.56 0.60 0.69 0.69 0.45 0.54 0.87 0.67 0.22 0.02 0.01 0.00 0.03 0.17 0.29 0.28 0.21 0.16 0.12 0.12 0.09 0.06 0.06 0.04 0.02 0.02 0.02 0.01 0.01 0.03 0.01 0.02 0.02 0.01 0.00 0.00 0.00 0.00 0.00 0.01
0.44 0.50 0.58 0.62 0.61 0.59 0.53 0.45 0.36 0.29 0.60 0.81 0.44 0.16 0.04 0.00 0.02 0.11 0.19 0.23 0.22 0.16 0.12 0.09 0.06 0.04 0.04 0.06 0.02 0.02 0.00 0.01 0.00 0.02 0.01 0.01 0.02 0.01 0.00 0.00 0.00 0.00 0.01 0.01
0.52 0.57 0.62 0.64 0.61 0.56 0.44 0.60 0.27 0.16 0.35 0.78 0.53 0.20 0.02 0.00 0.02 0.08 0.12 0.12 0.11 0.09 0.07 0.06 0.04 0.03 0.06 0.06 0.01 0.01 0.00 0.01 0.01 0.00 0.00 0.00 0.01 0.01 0.00 0.00 0.00 0.01 0.02 0.01
0.59 0.62 0.66 0.66 0.61 0.39 0.38 0.48 0.26 0.25 0.40 0.52 0.35 0.21 0.04 0.00 0.02 0.07 0.07 0.06 0.06 0.06 0.06 0.05 0.03 0.02 0.04 0.04 0.01 0.00 0.00 0.00 0.01 0.01 0.00 0.00 0.00 0.01 0.00 0.00 0.00 0.01 0.00 0.01
0.65 0.74 0.78 0.77 0.59 0.39 0.35 0.33 0.41 0.40 0.45 0.32 0.26 0.17 0.08 0.05 0.08 0.07 0.06 0.07 0.05 0.04 0.03 0.02 0.01 0.00 0.01 0.01 0.00 0.00 0.00 0.00 0.01 0.00 0.00 0.01 0.00 0.00 0.00 0.00 0.00 0.00 0.00 0.00
0.80 0.84 0.71 0.64 0.50 0.34 0.27 0.33 0.35 0.29 0.23 0.26 0.18 0.12 0.16 0.11 0.07 0.06 0.04 0.03 0.02 0.01 0.01 0.00 0.00 0.00 0.00 0.00 0.00 0.00 0.00 0.00 0.00 0.00 0.00 0.00 0.00 0.00 0.00 0.00 0.00 0.00 0.00 0.00
0.79 0.69 0.71 0.64 0.38 0.27 0.28 0.31 0.25 0.19 0.14 0.10 0.07 0.09 0.15 0.12 0.10 0.06 0.04 0.02 0.01 0.01 0.00 0.00 0.00 0.00 0.00 0.00 0.00 0.00 0.00 0.00 0.00 0.00 0.00 0.00 0.00 0.00 0.00 0.00 0.00 0.01 0.01 0.01
0.68 0.73 0.65 0.63 0.47 0.32 0.25 0.22 0.12 0.08 0.07 0.07 0.03 0.03 0.07 0.09 0.08 0.06 0.05 0.02 0.01 0.01 0.00 0.00 0.00 0.00 0.00 0.00 0.00 0.00 0.00 0.00 0.00 0.00 0.00 0.01 0.01 0.01 0.01 0.00 0.00 0.01 0.01 0.01
0.62 0.62 0.59 0.50 0.38 0.31 0.19 0.13 0.05 0.06 0.08 0.05 0.03 0.06 0.07 0.07 0.05 0.04 0.02 0.02 0.01 0.00 0.00 0.00 0.00 0.00 0.00 0.00 0.00 0.00 0.00 0.00 0.00 0.00 0.00 0.00 0.00 0.00 0.01 0.01 0.01 0.01 0.01 0.01
0.92 0.78 0.59 0.37 0.25 0.19 0.10 0.04 0.05 0.08 0.10 0.08 0.08 0.07 0.05 0.04 0.03 0.02 0.01 0.00 0.00 0.00 0.00 0.00 0.00 0.00 0.00 0.00 0.00 0.00 0.00 0.00 0.00 0.00 0.00 0.00 0.00 0.00 0.00 0.00 0.00 0.01 0.01 0.01
0.96 0.68 0.46 0.24 0.17 0.08 0.07 0.08 0.11 0.15 0.13 0.11 0.08 0.06 0.03 0.02 0.02 0.01 0.01 0.00 0.00 0.00 0.00 0.00 0.00 0.00 0.00 0.00 0.00 0.00 0.00 0.00 0.00 0.00 0.00 0.00 0.00 0.00 0.00 0.01 0.01 0.01 0.00 0.01
0.89 0.61 0.32 0.17 0.06 0.09 0.15 0.17 0.16 0.16 0.14 0.08 0.05 0.03 0.01 0.01 0.00 0.00 0.00 0.00 0.00 0.00 0.00 0.00 0.00 0.00 0.00 0.00 0.00 0.00 0.00 0.00 0.00 0.00 0.00 0.00 0.00 0.00 0.00 0.01 0.01 0.01 0.01 0.02
0.68 0.45 0.18 0.11 0.14 0.22 0.23 0.21 0.19 0.15 0.09 0.05 0.01 0.00 0.00 0.00 0.00 0.00 0.00 0.00 0.00 0.00 0.00 0.00 0.00 0.00 0.00 0.00 0.00 0.00 0.00 0.00 0.00 0.00 0.00 0.00 0.00 0.00 0.00 0.01 0.01 0.02 0.02 0.02
0.42 0.16 0.13 0.20 0.25 0.27 0.24 0.19 0.14 0.09 0.04 0.01 0.00 0.00 0.00 0.00 0.00 0.00 0.00 0.00 0.00 0.00 0.00 0.00 0.00 0.00 0.00 0.00 0.00 0.00 0.00 0.00 0.00 0.00 0.00 0.00 0.00 0.00 0.00 0.01 0.01 0.02 0.02 0.01

GFSNW_prec_precacc12_336.txt.gz
Total_Precipitation_Accumulation
0.00 0.00 0.00 0.01 0.01 0.01 0.00 0.00 0.00 0.00 0.00 0.00 0.00 0.00 0.00 0.00 0.00 0.00 0.00 0.00 0.00 0.00 0.00 0.00 0.00 0.00 0.00 0.00 0.00 0.00 0.00 0.02 0.01 0.00 0.00 0.00 0.00 0.01 0.02 0.04 0.04 0.05 0.08 0.09
0.00 0.00 0.00 0.01 0.01 0.02 0.00 0.00 0.00 0.00 0.00 0.00 0.00 0.00 0.00 0.00 0.00 0.00 0.00 0.00 0.00 0.00 0.00 0.00 0.00 0.00 0.00 0.00 0.00 0.01 0.02 0.01 0.00 0.00 0.01 0.00 0.01 0.00 0.01 0.03 0.06 0.05 0.08 0.06
0.00 0.00 0.00 0.01 0.01 0.01 0.00 0.00 0.00 0.00 0.00 0.00 0.00 0.00 0.00 0.00 0.00 0.00 0.00 0.00 0.00 0.00 0.00 0.00 0.00 0.00 0.00 0.00 0.00 0.01 0.04 0.03 0.00 0.00 0.01 0.01 0.01 0.00 0.00 0.02 0.05 0.04 0.03 0.02
0.00 0.01 0.01 0.01 0.01 0.01 0.01 0.00 0.00 0.00 0.00 0.00 0.00 0.01 0.00 0.00 0.00 0.00 0.00 0.00 0.00 0.00 0.00 0.00 0.00 0.00 0.00 0.00 0.00 0.00 0.00 0.02 0.00 0.00 0.00 0.00 0.00 0.00 0.00 0.01 0.03 0.04 0.04 0.01
0.01 0.01 0.01 0.01 0.02 0.02 0.00 0.00 0.00 0.01 0.01 0.00 0.00 0.00 0.00 0.00 0.00 0.00 0.00 0.00 0.00 0.00 0.01 0.00 0.00 0.00 0.00 0.00 0.00 0.00 0.01 0.01 0.00 0.00 0.00 0.01 0.02 0.01 0.00 0.01 0.01 0.01 0.03 0.04
0.01 0.01 0.01 0.01 0.03 0.06 0.02 0.00 0.00 0.03 0.03 0.01 0.01 0.00 0.00 0.00 0.02 0.02 0.00 0.00 0.02 0.01 0.00 0.00 0.00 0.00 0.00 0.00 0.01 0.04 0.07 0.03 0.02 0.01 0.00 0.00 0.02 0.01 0.00 0.01 0.01 0.01 0.01 0.02
0.01 0.01 0.01 0.02 0.02 0.11 0.11 0.06 0.08 0.17 0.10 0.03 0.01 0.00 0.00 0.00 0.01 0.03 0.01 0.02 0.11 0.03 0.00 0.01 0.01 0.00 0.00 0.00 0.00 0.01 0.05 0.04 0.03 0.01 0.00 0.00 0.00 0.00 0.00 0.00 0.01 0.01 0.01 0.01
0.02 0.02 0.03 0.04 0.06 0.12 0.17 0.15 0.23 0.33 0.25 0.04 0.02 0.00 0.00 0.01 0.01 0.03 0.05 0.02 0.03 0.06 0.08 0.06 0.02 0.00 0.00 0.00 0.00 0.00 0.01 0.04 0.03 0.01 0.00 0.00 0.00 0.00 0.00 0.00 0.01 0.01 0.01 0.01
0.07 0.07 0.10 0.14 0.19 0.22 0.32 0.22 0.29 0.56 0.48 0.13 0.01 0.03 0.03 0.07 0.11 0.12 0.03 0.00 0.04 0.10 0.10 0.08 0.05 0.00 0.00 0.00 0.00 0.01 0.01 0.03 0.04 0.01 0.01 0.01 0.00 0.00 0.00 0.00 0.01 0.01 0.00 0.00
0.16 0.18 0.20 0.24 0.29 0.35 0.51 0.40 0.29 0.83 0.78 0.15 0.00 0.05 0.12 0.16 0.20 0.27 0.12 0.04 0.08 0.07 0.11 0.10 0.04 0.01 0.00 0.00 0.00 0.01 0.01 0.03 0.05 0.02 0.05 0.02 0.00 0.00 0.00 0.01 0.01 0.00 0.00 0.00
0.24 0.27 0.31 0.34 0.37 0.49 0.86 0.74 0.39 0.85 1.04 0.36 0.03 0.01 0.05 0.21 0.31 0.33 0.32 0.30 0.15 0.12 0.11 0.06 0.02 0.02 0.00 0.00 0.00 0.00 0.00 0.02 0.03 0.04 0.07 0.02 0.00 0.00 0.00 0.00 0.00 0.01 0.00 0.00
0.22 0.26 0.33 0.38 0.47 0.67 1.12 1.12 0.43 0.71 1.31 0.67 0.09 0.02 0.00 0.05 0.15 0.41 0.57 0.25 0.12 0.16 0.13 0.07 0.11 0.05 0.03 0.01 0.01 0.00 0.01 0.01 0.01 0.01 0.01 0.00 0.00 0.00 0.00 0.00 0.00 0.00 0.00 0.00
0.24 0.33 0.37 0.41 0.52 0.70 1.02 0.96 0.61 0.86 1.23 0.73 0.26 0.08 0.02 0.05 0.12 0.31 0.58 0.49 0.25 0.27 0.13 0.18 0.16 0.13 0.05 0.04 0.03 0.01 0.01 0.00 0.03 0.02 0.01 0.01 0.00 0.00 0.00 0.00 0.00 0.00 0.00 0.00
0.31 0.36 0.43 0.49 0.56 0.63 0.78 0.81 0.52 0.69 1.19 0.95 0.30 0.03 0.01 0.01 0.06 0.25 0.47 0.51 0.40 0.29 0.25 0.26 0.17 0.10 0.06 0.06 0.02 0.02 0.01 0.02 0.04 0.04 0.01 0.02 0.02 0.01 0.00 0.00 0.00 0.00 0.00 0.00
0.32 0.41 0.50 0.56 0.58 0.59 0.56 0.49 0.40 0.34 0.77 1.07 0.58 0.20 0.04 0.01 0.03 0.15 0.29 0.40 0.42 0.33 0.26 0.21 0.14 0.07 0.08 0.09 0.05 0.02 0.00 0.01 0.03 0.03 0.00 0.01 0.03 0.01 0.00 0.00 0.00 0.00 0.00 0.00
0.35 0.45 0.52 0.55 0.56 0.56 0.46 0.62 0.28 0.17 0.39 1.03 0.70 0.24 0.02 0.00 0.02 0.09 0.17 0.22 0.25 0.23 0.18 0.13 0.10 0.06 0.10 0.12 0.03 0.00 0.00 0.00 0.01 0.01 0.00 0.00 0.01 0.01 0.00 0.00 0.00 0.00 0.01 0.00
0.40 0.48 0.51 0.55 0.56 0.39 0.42 0.48 0.25 0.26 0.46 0.71 0.47 0.23 0.04 0.01 0.03 0.08 0.11 0.12 0.14 0.16 0.15 0.10 0.06 0.05 0.11 0.10 0.02 0.00 0.01 0.01 0.01 0.00 0.00 0.00 0.01 0.00 0.00 0.00 0.00 0.00 0.00 0.00
0.47 0.52 0.58 0.63 0.51 0.38 0.38 0.37 0.47 0.44 0.55 0.45 0.33 0.19 0.08 0.06 0.08 0.08 0.09 0.12 0.11 0.10 0.08 0.05 0.02 0.04 0.05 0.04 0.01 0.00 0.01 0.00 0.00 0.00 0.00 0.00 0.00 0.00 0.00 0.00 0.00 0.00 0.00 0.00
0.55 0.56 0.49 0.50 0.46 0.32 0.27 0.40 0.44 0.38 0.31 0.34 0.21 0.12 0.16 0.12 0.07 0.08 0.06 0.06 0.05 0.04 0.03 0.01 0.01 0.01 0.00 0.00 0.00 0.00 0.00 0.00 0.00 0.00 0.00 0.00 0.00 0.00 0.00 0.00 0.00 0.00 0.00 0.00
0.53 0.39 0.54 0.56 0.35 0.24 0.28 0.35 0.31 0.27 0.18 0.15 0.09 0.10 0.16 0.13 0.11 0.09 0.08 0.05 0.02 0.01 0.00 0.00 0.00 0.00 0.00 0.00 0.00 0.00 0.00 0.00 0.00 0.00 0.00 0.00 0.00 0.00 0.00 0.00 0.00 0.00 0.00 0.00
0.39 0.50 0.53 0.54 0.40 0.25 0.24 0.23 0.14 0.09 0.07 0.07 0.03 0.04 0.08 0.11 0.11 0.10 0.08 0.04 0.02 0.01 0.00 0.00 0.00 0.00 0.00 0.00 0.00 0.00 0.00 0.00 0.00 0.00 0.00 0.00 0.00 0.00 0.00 0.00 0.00 0.00 0.00 0.00
0.46 0.50 0.49 0.47 0.35 0.29 0.22 0.17 0.06 0.06 0.07 0.06 0.03 0.06 0.08 0.09 0.08 0.07 0.05 0.02 0.02 0.01 0.00 0.00 0.00 0.00 0.00 0.00 0.00 0.00 0.00 0.00 0.00 0.00 0.00 0.00 0.00 0.00 0.00 0.00 0.00 0.00 0.00 0.00
0.65 0.65 0.58 0.40 0.31 0.24 0.13 0.04 0.04 0.07 0.09 0.08 0.08 0.08 0.07 0.07 0.06 0.04 0.02 0.01 0.01 0.00 0.00 0.00 0.00 0.00 0.00 0.00 0.00 0.00 0.00 0.00 0.00 0.00 0.00 0.00 0.00 0.00 0.00 0.00 0.00 0.00 0.00 0.00
0.78 0.56 0.37 0.19 0.16 0.09 0.06 0.06 0.09 0.14 0.12 0.11 0.09 0.08 0.07 0.06 0.05 0.02 0.01 0.01 0.00 0.00 0.00 0.00 0.00 0.00 0.00 0.00 0.00 0.00 0.00 0.00 0.00 0.00 0.00 0.00 0.00 0.00 0.00 0.00 0.00 0.00 0.00 0.00
0.80 0.56 0.31 0.19 0.06 0.06 0.12 0.16 0.16 0.17 0.15 0.11 0.09 0.08 0.05 0.04 0.02 0.01 0.01 0.00 0.00 0.00 0.00 0.00 0.00 0.00 0.00 0.00 0.00 0.00 0.00 0.00 0.00 0.00 0.00 0.00 0.00 0.00 0.00 0.00 0.00 0.01 0.01 0.01
0.61 0.39 0.17 0.09 0.09 0.17 0.22 0.23 0.22 0.19 0.14 0.10 0.06 0.04 0.02 0.01 0.00 0.00 0.00 0.00 0.00 0.00 0.00 0.00 0.00 0.00 0.00 0.00 0.00 0.00 0.00 0.00 0.00 0.00 0.00 0.00 0.00 0.00 0.00 0.00 0.01 0.01 0.02 0.02
0.40 0.15 0.08 0.12 0.19 0.24 0.24 0.21 0.18 0.15 0.10 0.06 0.02 0.01 0.00 0.00 0.00 0.00 0.00 0.00 0.00 0.00 0.00 0.00 0.00 0.00 0.00 0.00 0.00 0.00 0.00 0.00 0.00 0.00 0.00 0.00 0.00 0.00 0.00 0.00 0.00 0.01 0.02 0.01

GFSNW_prec_precacc12_339.txt.gz
Total_Precipitation_Accumulation
0.00 0.00 0.00 0.01 0.01 0.01 0.00 0.00 0.00 0.00 0.00 0.00 0.00 0.00 0.00 0.00 0.00 0.00 0.00 0.00 0.00 0.00 0.00 0.00 0.00 0.00 0.00 0.00 0.00 0.00 0.00 0.02 0.01 0.00 0.00 0.00 0.00 0.00 0.00 0.01 0.01 0.03 0.07 0.07
0.00 0.00 0.00 0.01 0.01 0.03 0.00 0.00 0.00 0.00 0.00 0.00 0.00 0.00 0.00 0.00 0.00 0.00 0.00 0.00 0.00 0.00 0.00 0.00 0.00 0.00 0.00 0.00 0.00 0.00 0.02 0.00 0.00 0.00 0.00 0.00 0.01 0.00 0.00 0.01 0.04 0.03 0.05 0.04
0.01 0.01 0.01 0.01 0.01 0.02 0.01 0.00 0.00 0.00 0.00 0.00 0.00 0.00 0.00 0.00 0.00 0.00 0.00 0.00 0.00 0.00 0.00 0.00 0.00 0.00 0.00 0.00 0.00 0.00 0.04 0.04 0.00 0.00 0.00 0.00 0.00 0.00 0.00 0.00 0.03 0.02 0.01 0.01
0.01 0.01 0.01 0.01 0.01 0.01 0.02 0.00 0.00 0.00 0.00 0.00 0.00 0.01 0.00 0.00 0.00 0.00 0.00 0.00 0.00 0.00 0.00 0.00 0.00 0.00 0.00 0.00 0.00 0.00 0.03 0.04 0.00 0.00 0.00 0.00 0.00 0.00 0.00 0.00 0.00 0.01 0.00 0.00
0.01 0.01 0.01 0.01 0.01 0.02 0.02 0.00 0.00 0.01 0.00 0.00 0.00 0.00 0.00 0.00 0.00 0.01 0.00 0.00 0.00 0.01 0.00 0.01 0.01 0.01 0.00 0.00 0.00 0.01 0.04 0.05 0.01 0.01 0.00 0.00 0.01 0.01 0.00 0.00 0.00 0.00 0.00 0.01
0.01 0.01 0.01 0.01 0.02 0.05 0.03 0.00 0.00 0.02 0.02 0.01 0.01 0.01 0.00 0.00 0.01 0.02 0.00 0.01 0.07 0.04 0.00 0.00 0.00 0.00 0.00 0.00 0.01 0.03 0.10 0.05 0.05 0.03 0.00 0.00 0.01 0.01 0.00 0.00 0.00 0.00 0.00 0.00
0.06 0.07 0.07 0.08 0.09 0.15 0.12 0.06 0.09 0.16 0.10 0.04 0.01 0.00 0.00 0.00 0.01 0.03 0.01 0.05 0.24 0.07 0.01 0.04 0.03 0.00 0.00 0.00 0.00 0.02 0.09 0.08 0.08 0.03 0.00 0.01 0.00 0.00 0.00 0.00 0.00 0.00 0.00 0.00
0.10 0.11 0.14 0.18 0.22 0.29 0.32 0.22 0.31 0.40 0.31 0.05 0.03 0.01 0.01 0.03 0.02 0.04 0.06 0.02 0.05 0.15 0.21 0.18 0.08 0.01 0.00 0.00 0.00 0.01 0.04 0.10 0.09 0.06 0.01 0.00 0.00 0.00 0.00 0.00 0.00 0.00 0.00 0.00
0.14 0.15 0.21 0.28 0.36 0.46 0.66 0.43 0.37 0.73 0.65 0.19 0.02 0.03 0.06 0.12 0.16 0.16 0.04 0.01 0.07 0.25 0.25 0.19 0.13 0.03 0.00 0.00 0.00 0.01 0.03 0.08 0.13 0.06 0.04 0.01 0.00 0.00 0.00 0.00 0.00 0.00 0.00 0.00
0.20 0.23 0.27 0.33 0.41 0.54 0.87 0.75 0.39 1.04 1.05 0.21 0.01 0.07 0.16 0.23 0.26 0.34 0.15 0.08 0.18 0.19 0.23 0.21 0.10 0.04 0.01 0.01 0.00 0.01 0.02 0.06 0.12 0.05 0.10 0.03 0.00 0.00 0.00 0.01 0.00 0.00 0.00 0.00
0.25 0.30 0.31 0.34 0.41 0.57 1.09 1.05 0.50 0.97 1.33 0.49 0.04 0.01 0.06 0.23 0.38 0.42 0.41 0.44 0.24 0.21 0.22 0.13 0.05 0.06 0.01 0.00 0.00 0.00 0.00 0.04 0.06 0.08 0.14 0.04 0.00 0.00 0.00 0.00 0.00 0.00 0.00 0.00
0.23 0.24 0.25 0.29 0.39 0.61 1.15 1.37 0.49 0.75 1.58 0.84 0.08 0.01 0.00 0.05 0.15 0.49 0.85 0.39 0.15 0.27 0.23 0.13 0.20 0.14 0.05 0.01 0.02 0.00 0.01 0.01 0.01 0.02 0.01 0.00 0.00 0.00 0.00 0.00 0.00 0.00 0.00 0.00
0.21 0.22 0.24 0.29 0.40 0.59 0.93 1.00 0.61 0.90 1.47 0.96 0.29 0.08 0.02 0.05 0.12 0.33 0.80 0.74 0.36 0.40 0.18 0.28 0.29 0.25 0.07 0.06 0.04 0.02 0.01 0.01 0.06 0.05 0.02 0.00 0.00 0.00 0.00 0.00 0.00 0.00 0.00 0.00
0.23 0.23 0.27 0.34 0.41 0.49 0.67 0.75 0.48 0.69 1.29 1.07 0.33 0.03 0.01 0.01 0.06 0.26 0.53 0.62 0.56 0.43 0.40 0.42 0.29 0.16 0.09 0.09 0.03 0.04 0.03 0.05 0.10 0.09 0.03 0.03 0.03 0.01 0.00 0.00 0.00 0.00 0.00 0.00
0.19 0.23 0.29 0.36 0.42 0.45 0.45 0.39 0.35 0.33 0.78 1.13 0.60 0.20 0.03 0.01 0.03 0.16 0.33 0.48 0.54 0.47 0.40 0.34 0.21 0.11 0.14 0.16 0.09 0.05 0.01 0.02 0.07 0.06 0.01 0.02 0.03 0.01 0.00 0.00 0.00 0.00 0.00 0.00
0.16 0.21 0.27 0.33 0.38 0.45 0.34 0.50 0.25 0.16 0.39 1.20 0.85 0.27 0.02 0.01 0.03 0.11 0.20 0.27 0.32 0.31 0.26 0.21 0.16 0.11 0.14 0.20 0.07 0.00 0.00 0.03 0.06 0.04 0.02 0.01 0.01 0.01 0.00 0.00 0.00 0.00 0.00 0.00
0.13 0.18 0.24 0.30 0.36 0.30 0.37 0.43 0.17 0.19 0.43 0.79 0.59 0.30 0.04 0.01 0.03 0.09 0.12 0.14 0.17 0.19 0.21 0.16 0.09 0.07 0.17 0.16 0.04 0.01 0.03 0.06 0.04 0.02 0.01 0.01 0.01 0.00 0.00 0.00 0.00 0.00 0.00 0.00
0.12 0.19 0.27 0.34 0.28 0.24 0.31 0.34 0.43 0.42 0.58 0.59 0.48 0.23 0.07 0.05 0.08 0.08 0.10 0.12 0.12 0.13 0.11 0.07 0.03 0.06 0.11 0.09 0.02 0.02 0.04 0.03 0.01 0.00 0.00 0.00 0.00 0.00 0.00 0.00 0.00 0.00 0.00 0.00
0.15 0.19 0.17 0.18 0.24 0.21 0.19 0.34 0.42 0.42 0.44 0.53 0.30 0.09 0.12 0.13 0.08 0.08 0.07 0.07 0.06 0.05 0.04 0.01 0.02 0.02 0.02 0.01 0.01 0.02 0.01 0.00 0.00 0.00 0.00 0.00 0.00 0.00 0.00 0.00 0.00 0.00 0.00 0.00
0.25 0.13 0.22 0.33 0.21 0.15 0.20 0.33 0.37 0.38 0.29 0.26 0.14 0.09 0.16 0.14 0.11 0.10 0.09 0.06 0.02 0.02 0.00 0.00 0.00 0.00 0.00 0.00 0.00 0.00 0.00 0.00 0.00 0.00 0.00 0.00 0.00 0.00 0.00 0.00 0.00 0.00 0.00 0.00
0.22 0.28 0.31 0.31 0.21 0.16 0.22 0.28 0.22 0.13 0.07 0.06 0.04 0.04 0.09 0.13 0.12 0.11 0.10 0.06 0.03 0.02 0.00 0.00 0.00 0.00 0.00 0.00 0.00 0.00 0.00 0.00 0.00 0.00 0.00 0.00 0.00 0.00 0.00 0.00 0.00 0.00 0.00 0.00
0.35 0.32 0.32 0.32 0.25 0.23 0.19 0.15 0.06 0.04 0.04 0.05 0.03 0.06 0.08 0.10 0.10 0.10 0.08 0.05 0.04 0.01 0.00 0.00 0.00 0.00 0.00 0.00 0.00 0.00 0.00 0.00 0.00 0.00 0.00 0.00 0.00 0.00 0.00 0.00 0.00 0.00 0.00 0.00
0.44 0.50 0.52 0.37 0.30 0.26 0.15 0.04 0.02 0.03 0.06 0.06 0.08 0.08 0.08 0.09 0.10 0.09 0.05 0.03 0.01 0.00 0.00 0.00 0.00 0.00 0.00 0.00 0.00 0.00 0.00 0.00 0.00 0.00 0.00 0.00 0.00 0.00 0.00 0.00 0.00 0.00 0.00 0.00
0.61 0.43 0.30 0.15 0.12 0.09 0.06 0.05 0.07 0.11 0.12 0.11 0.11 0.13 0.12 0.10 0.08 0.05 0.03 0.03 0.00 0.00 0.00 0.00 0.00 0.00 0.00 0.00 0.00 0.00 0.00 0.00 0.00 0.00 0.00 0.00 0.00 0.00 0.00 0.00 0.00 0.00 0.00 0.00
0.68 0.49 0.29 0.17 0.06 0.03 0.04 0.08 0.12 0.17 0.19 0.16 0.16 0.14 0.10 0.08 0.06 0.03 0.02 0.01 0.00 0.00 0.00 0.00 0.00 0.00 0.00 0.00 0.00 0.00 0.00 0.00 0.00 0.00 0.00 0.00 0.00 0.00 0.00 0.00 0.00 0.00 0.00 0.01
0.58 0.38 0.15 0.07 0.06 0.12 0.16 0.21 0.23 0.25 0.21 0.16 0.11 0.08 0.06 0.03 0.02 0.01 0.00 0.00 0.00 0.00 0.00 0.00 0.00 0.00 0.00 0.00 0.00 0.00 0.00 0.00 0.00 0.00 0.00 0.00 0.00 0.00 0.00 0.00 0.00 0.01 0.01 0.01
0.32 0.13 0.06 0.07 0.09 0.15 0.18 0.19 0.19 0.18 0.15 0.11 0.07 0.04 0.02 0.00 0.00 0.00 0.00 0.00 0.00 0.00 0.00 0.00 0.00 0.00 0.00 0.00 0.00 0.00 0.00 0.00 0.00 0.00 0.00 0.00 0.00 0.00 0.00 0.00 0.00 0.00 0.01 0.01

GFSNW_prec_precacc12_345.txt.gz
Total_Precipitation_Accumulation
0.00 0.00 0.01 0.01 0.01 0.01 0.00 0.00 0.00 0.00 0.00 0.00 0.00 0.00 0.00 0.00 0.00 0.00 0.00 0.00 0.00 0.00 0.00 0.00 0.00 0.00 0.00 0.00 0.00 0.00 0.00 0.01 0.01 0.00 0.00 0.00 0.00 0.00 0.00 0.00 0.00 0.00 0.01 0.01
0.00 0.01 0.01 0.02 0.02 0.02 0.00 0.00 0.00 0.00 0.00 0.00 0.00 0.00 0.00 0.00 0.00 0.00 0.00 0.00 0.00 0.00 0.00 0.00 0.00 0.00 0.00 0.00 0.00 0.00 0.00 0.00 0.00 0.00 0.00 0.00 0.00 0.00 0.00 0.00 0.01 0.00 0.01 0.00
0.01 0.01 0.01 0.01 0.02 0.02 0.02 0.00 0.00 0.00 0.00 0.00 0.00 0.00 0.00 0.00 0.00 0.00 0.00 0.00 0.00 0.00 0.00 0.00 0.01 0.00 0.00 0.00 0.00 0.01 0.02 0.02 0.00 0.00 0.00 0.00 0.00 0.00 0.00 0.00 0.02 0.00 0.00 0.00
0.02 0.02 0.01 0.02 0.03 0.03 0.03 0.00 0.00 0.00 0.00 0.00 0.00 0.00 0.00 0.00 0.00 0.00 0.00 0.00 0.00 0.00 0.05 0.02 0.00 0.00 0.01 0.01 0.00 0.01 0.04 0.07 0.00 0.00 0.00 0.00 0.00 0.00 0.00 0.00 0.00 0.00 0.00 0.00
0.04 0.03 0.09 0.16 0.18 0.18 0.08 0.00 0.00 0.00 0.00 0.00 0.00 0.00 0.00 0.00 0.00 0.02 0.02 0.01 0.00 0.05 0.07 0.02 0.10 0.15 0.08 0.03 0.00 0.03 0.14 0.13 0.04 0.02 0.00 0.00 0.00 0.00 0.00 0.00 0.00 0.00 0.00 0.00
0.07 0.11 0.18 0.30 0.46 0.53 0.18 0.03 0.01 0.07 0.11 0.02 0.01 0.01 0.00 0.00 0.01 0.06 0.01 0.04 0.24 0.23 0.03 0.06 0.10 0.19 0.17 0.07 0.04 0.06 0.19 0.13 0.16 0.12 0.00 0.00 0.01 0.00 0.00 0.00 0.00 0.00 0.00 0.00
0.12 0.15 0.19 0.29 0.58 0.83 0.35 0.19 0.15 0.34 0.25 0.09 0.03 0.00 0.00 0.00 0.00 0.04 0.01 0.15 0.52 0.15 0.09 0.26 0.24 0.16 0.15 0.17 0.11 0.04 0.22 0.23 0.31 0.15 0.05 0.03 0.00 0.00 0.00 0.00 0.00 0.00 0.00 0.00
0.13 0.16 0.21 0.30 0.47 0.84 0.83 0.35 0.36 0.52 0.47 0.10 0.04 0.02 0.02 0.04 0.03 0.03 0.04 0.04 0.08 0.26 0.50 0.50 0.32 0.10 0.02 0.03 0.01 0.04 0.09 0.26 0.31 0.22 0.08 0.02 0.00 0.00 0.00 0.00 0.00 0.00 0.00 0.00
0.15 0.18 0.24 0.35 0.46 0.65 1.08 0.67 0.34 0.75 0.82 0.25 0.02 0.02 0.06 0.12 0.13 0.14 0.04 0.01 0.07 0.41 0.61 0.49 0.33 0.12 0.03 0.02 0.00 0.02 0.09 0.19 0.40 0.21 0.13 0.04 0.00 0.00 0.00 0.00 0.00 0.00 0.00 0.00
0.17 0.20 0.25 0.32 0.40 0.54 0.88 0.88 0.52 0.95 1.21 0.26 0.02 0.08 0.12 0.17 0.18 0.28 0.14 0.09 0.26 0.35 0.47 0.39 0.21 0.13 0.03 0.05 0.01 0.01 0.04 0.14 0.27 0.11 0.24 0.10 0.00 0.00 0.00 0.00 0.00 0.00 0.00 0.00
0.18 0.21 0.24 0.26 0.31 0.44 0.80 0.75 0.44 0.94 1.38 0.46 0.03 0.00 0.04 0.09 0.24 0.34 0.34 0.49 0.31 0.28 0.35 0.22 0.11 0.15 0.05 0.02 0.00 0.00 0.01 0.07 0.13 0.15 0.28 0.10 0.00 0.00 0.00 0.00 0.00 0.00 0.00 0.00
0.09 0.10 0.11 0.14 0.19 0.28 0.59 0.75 0.28 0.57 1.45 0.98 0.08 0.00 0.00 0.00 0.03 0.34 0.91 0.45 0.11 0.32 0.33 0.20 0.32 0.30 0.13 0.03 0.02 0.00 0.00 0.01 0.03 0.08 0.05 0.00 0.00 0.00 0.00 0.00 0.00 0.00 0.00 0.00
0.04 0.04 0.05 0.06 0.08 0.16 0.34 0.37 0.25 0.68 1.24 0.99 0.32 0.05 0.00 0.01 0.02 0.10 0.76 0.81 0.30 0.39 0.20 0.44 0.57 0.51 0.17 0.12 0.07 0.02 0.01 0.01 0.08 0.09 0.03 0.00 0.00 0.01 0.01 0.01 0.00 0.00 0.00 0.00
0.03 0.04 0.05 0.05 0.07 0.10 0.17 0.20 0.15 0.37 0.81 0.83 0.27 0.02 0.00 0.00 0.03 0.09 0.27 0.44 0.52 0.58 0.57 0.67 0.52 0.32 0.16 0.16 0.04 0.05 0.03 0.06 0.14 0.18 0.05 0.03 0.04 0.01 0.02 0.02 0.01 0.00 0.00 0.00
0.04 0.05 0.05 0.05 0.05 0.08 0.11 0.10 0.07 0.12 0.38 0.55 0.26 0.08 0.02 0.01 0.01 0.06 0.17 0.34 0.52 0.67 0.63 0.57 0.35 0.15 0.17 0.22 0.17 0.09 0.02 0.02 0.10 0.11 0.03 0.06 0.04 0.03 0.04 0.05 0.04 0.03 0.01 0.01
0.07 0.07 0.07 0.06 0.07 0.13 0.17 0.15 0.02 0.03 0.15 0.64 0.48 0.21 0.05 0.02 0.02 0.04 0.10 0.21 0.32 0.42 0.41 0.36 0.31 0.17 0.16 0.29 0.17 0.01 0.00 0.03 0.08 0.09 0.07 0.06 0.05 0.04 0.04 0.04 0.04 0.02 0.01 0.00
0.09 0.10 0.11 0.11 0.11 0.16 0.26 0.16 0.02 0.04 0.26 0.84 0.84 0.52 0.15 0.04 0.03 0.04 0.08 0.13 0.19 0.24 0.30 0.25 0.15 0.10 0.22 0.27 0.09 0.01 0.04 0.09 0.10 0.08 0.06 0.04 0.03 0.02 0.02 0.02 0.02 0.01 0.00 0.00
0.08 0.08 0.10 0.09 0.09 0.11 0.14 0.09 0.12 0.11 0.29 0.61 0.66 0.35 0.12 0.09 0.06 0.05 0.08 0.10 0.15 0.19 0.18 0.12 0.06 0.10 0.20 0.18 0.04 0.03 0.07 0.06 0.04 0.03 0.02 0.01 0.01 0.01 0.01 0.00 0.00 0.00 0.00 0.00
0.06 0.08 0.10 0.07 0.05 0.05 0.05 0.11 0.13 0.19 0.36 0.53 0.32 0.10 0.07 0.06 0.05 0.06 0.07 0.09 0.10 0.11 0.08 0.05 0.07 0.09 0.07 0.03 0.02 0.02 0.02 0.02 0.01 0.01 0.00 0.00 0.00 0.00 0.00 0.00 0.00 0.00 0.00 0.00
0.18 0.16 0.21 0.25 0.09 0.10 0.15 0.23 0.32 0.42 0.42 0.40 0.19 0.05 0.05 0.04 0.04 0.06 0.09 0.10 0.08 0.08 0.04 0.03 0.04 0.02 0.00 0.00 0.01 0.02 0.02 0.01 0.00 0.00 0.00 0.00 0.00 0.00 0.00 0.00 0.00 0.00 0.00 0.00
0.22 0.26 0.26 0.16 0.09 0.13 0.21 0.26 0.25 0.25 0.20 0.12 0.06 0.05 0.06 0.10 0.08 0.10 0.13 0.11 0.06 0.05 0.01 0.01 0.01 0.00 0.00 0.00 0.00 0.01 0.01 0.00 0.00 0.00 0.00 0.00 0.00 0.00 0.00 0.00 0.00 0.00 0.00 0.00
0.37 0.41 0.40 0.32 0.24 0.23 0.22 0.18 0.07 0.06 0.05 0.06 0.03 0.05 0.08 0.14 0.15 0.18 0.20 0.14 0.14 0.08 0.03 0.02 0.01 0.00 0.00 0.00 0.00 0.00 0.00 0.00 0.00 0.00 0.00 0.00 0.00 0.00 0.00 0.00 0.00 0.00 0.00 0.00
0.39 0.47 0.55 0.38 0.33 0.31 0.18 0.04 0.03 0.05 0.05 0.04 0.05 0.08 0.09 0.11 0.14 0.17 0.14 0.11 0.08 0.04 0.03 0.02 0.01 0.00 0.00 0.00 0.00 0.00 0.00 0.00 0.00 0.00 0.00 0.00 0.00 0.00 0.00 0.00 0.00 0.00 0.00 0.00
0.60 0.36 0.24 0.12 0.10 0.09 0.06 0.06 0.09 0.13 0.16 0.16 0.15 0.16 0.18 0.16 0.18 0.17 0.12 0.09 0.05 0.03 0.01 0.00 0.00 0.00 0.00 0.00 0.00 0.00 0.00 0.00 0.00 0.00 0.00 0.00 0.00 0.00 0.00 0.00 0.00 0.00 0.00 0.00
0.67 0.42 0.23 0.15 0.06 0.03 0.04 0.05 0.08 0.10 0.13 0.12 0.15 0.15 0.13 0.12 0.12 0.07 0.06 0.05 0.03 0.01 0.00 0.00 0.00 0.00 0.00 0.00 0.00 0.00 0.00 0.00 0.00 0.00 0.00 0.00 0.00 0.00 0.00 0.00 0.00 0.00 0.00 0.00
0.38 0.26 0.14 0.08 0.09 0.10 0.12 0.16 0.17 0.17 0.17 0.17 0.15 0.12 0.09 0.07 0.05 0.03 0.03 0.02 0.01 0.00 0.00 0.00 0.00 0.00 0.00 0.00 0.00 0.00 0.00 0.00 0.00 0.00 0.00 0.00 0.00 0.00 0.00 0.00 0.00 0.00 0.00 0.00
0.11 0.05 0.05 0.04 0.03 0.03 0.05 0.07 0.09 0.13 0.14 0.13 0.10 0.07 0.05 0.03 0.02 0.01 0.00 0.00 0.00 0.00 0.00 0.00 0.00 0.00 0.00 0.00 0.00 0.00 0.00 0.00 0.00 0.00 0.00 0.00 0.00 0.00 0.00 0.00 0.00 0.00 0.00 0.00

GFSNW_prec_precacc12_351.txt.gz
Total_Precipitation_Accumulation
0.01 0.01 0.01 0.01 0.01 0.00 0.00 0.00 0.00 0.00 0.00 0.00 0.00 0.00 0.00 0.00 0.00 0.00 0.00 0.00 0.00 0.00 0.00 0.00 0.00 0.00 0.00 0.00 0.00 0.00 0.00 0.00 0.00 0.00 0.00 0.00 0.00 0.00 0.00 0.00 0.00 0.00 0.00 0.00
0.02 0.02 0.01 0.02 0.01 0.00 0.00 0.00 0.00 0.00 0.00 0.00 0.00 0.00 0.00 0.00 0.00 0.00 0.00 0.00 0.00 0.00 0.00 0.00 0.00 0.00 0.00 0.00 0.00 0.00 0.00 0.00 0.00 0.00 0.00 0.00 0.00 0.00 0.00 0.00 0.00 0.00 0.00 0.00
0.01 0.01 0.02 0.01 0.01 0.01 0.01 0.00 0.00 0.00 0.00 0.00 0.00 0.00 0.00 0.00 0.00 0.00 0.00 0.00 0.00 0.00 0.00 0.00 0.01 0.00 0.00 0.00 0.00 0.03 0.01 0.02 0.00 0.00 0.00 0.00 0.00 0.00 0.00 0.00 0.02 0.01 0.00 0.00
0.08 0.07 0.07 0.09 0.14 0.13 0.07 0.05 0.02 0.00 0.00 0.00 0.00 0.00 0.00 0.00 0.00 0.00 0.00 0.00 0.00 0.00 0.11 0.04 0.01 0.02 0.05 0.06 0.01 0.04 0.04 0.06 0.00 0.00 0.00 0.00 0.00 0.00 0.00 0.00 0.00 0.01 0.00 0.00
0.32 0.37 0.45 0.57 0.75 0.79 0.38 0.13 0.04 0.03 0.02 0.00 0.01 0.02 0.01 0.00 0.00 0.02 0.03 0.01 0.00 0.12 0.18 0.04 0.21 0.37 0.23 0.08 0.03 0.12 0.19 0.13 0.04 0.02 0.00 0.00 0.00 0.00 0.00 0.00 0.00 0.00 0.00 0.00
0.39 0.42 0.55 0.79 1.31 1.70 0.58 0.07 0.03 0.18 0.27 0.04 0.05 0.03 0.00 0.00 0.01 0.07 0.01 0.03 0.22 0.28 0.04 0.07 0.15 0.29 0.29 0.15 0.08 0.13 0.25 0.16 0.23 0.16 0.00 0.01 0.01 0.00 0.00 0.00 0.00 0.00 0.00 0.00
0.16 0.20 0.27 0.47 1.15 1.90 0.74 0.34 0.24 0.67 0.49 0.12 0.03 0.00 0.00 0.00 0.00 0.02 0.01 0.10 0.36 0.11 0.08 0.25 0.25 0.19 0.19 0.26 0.20 0.05 0.26 0.33 0.44 0.22 0.11 0.09 0.01 0.00 0.00 0.00 0.00 0.00 0.00 0.00
0.05 0.07 0.11 0.18 0.40 1.34 1.28 0.56 0.47 0.66 0.54 0.12 0.02 0.01 0.01 0.02 0.01 0.00 0.00 0.02 0.04 0.12 0.35 0.45 0.35 0.12 0.04 0.04 0.02 0.06 0.08 0.31 0.40 0.29 0.14 0.04 0.00 0.00 0.00 0.00 0.00 0.00 0.00 0.00
0.03 0.04 0.05 0.08 0.14 0.35 0.92 0.77 0.38 0.67 0.81 0.23 0.02 0.02 0.03 0.05 0.04 0.05 0.01 0.00 0.00 0.18 0.47 0.52 0.35 0.11 0.02 0.02 0.00 0.03 0.14 0.26 0.47 0.29 0.19 0.06 0.00 0.00 0.00 0.00 0.00 0.00 0.00 0.00
0.02 0.02 0.03 0.04 0.07 0.13 0.33 0.48 0.54 0.81 1.05 0.25 0.01 0.06 0.07 0.07 0.08 0.14 0.05 0.02 0.11 0.20 0.43 0.40 0.20 0.11 0.03 0.04 0.01 0.00 0.05 0.18 0.33 0.11 0.28 0.16 0.00 0.00 0.00 0.00 0.00 0.00 0.00 0.00
0.03 0.03 0.03 0.03 0.04 0.06 0.18 0.18 0.24 0.70 1.06 0.35 0.02 0.01 0.03 0.10 0.19 0.26 0.17 0.37 0.30 0.29 0.39 0.26 0.09 0.11 0.03 0.01 0.00 0.00 0.00 0.05 0.12 0.14 0.32 0.16 0.00 0.00 0.00 0.00 0.00 0.00 0.00 0.00
0.03 0.03 0.03 0.04 0.05 0.06 0.12 0.12 0.10 0.29 0.83 0.68 0.07 0.01 0.00 0.01 0.05 0.18 0.57 0.44 0.08 0.19 0.30 0.20 0.21 0.29 0.15 0.03 0.02 0.00 0.00 0.00 0.01 0.07 0.05 0.00 0.00 0.00 0.01 0.01 0.00 0.00 0.00 0.00
0.05 0.05 0.06 0.06 0.06 0.07 0.13 0.10 0.13 0.37 0.53 0.48 0.22 0.04 0.00 0.00 0.01 0.03 0.45 0.59 0.17 0.20 0.09 0.31 0.54 0.61 0.28 0.19 0.09 0.01 0.00 0.00 0.02 0.06 0.02 0.00 0.00 0.02 0.02 0.03 0.03 0.02 0.02 0.01
0.07 0.07 0.07 0.07 0.08 0.09 0.16 0.13 0.09 0.22 0.39 0.55 0.17 0.01 0.00 0.00 0.00 0.01 0.08 0.19 0.28 0.47 0.48 0.75 0.72 0.53 0.26 0.20 0.09 0.07 0.03 0.02 0.05 0.11 0.03 0.01 0.02 0.01 0.04 0.10 0.08 0.05 0.03 0.01
0.08 0.07 0.08 0.08 0.08 0.10 0.16 0.10 0.03 0.08 0.25 0.42 0.19 0.04 0.00 0.00 0.00 0.01 0.05 0.14 0.31 0.60 0.66 0.68 0.52 0.28 0.28 0.35 0.31 0.18 0.03 0.02 0.05 0.09 0.03 0.06 0.06 0.05 0.08 0.11 0.10 0.08 0.05 0.03
0.10 0.10 0.11 0.11 0.11 0.18 0.30 0.33 0.03 0.00 0.08 0.39 0.41 0.14 0.03 0.01 0.00 0.01 0.03 0.07 0.15 0.31 0.44 0.43 0.39 0.19 0.14 0.27 0.22 0.03 0.00 0.00 0.02 0.06 0.09 0.11 0.11 0.11 0.11 0.11 0.10 0.07 0.05 0.03
0.12 0.12 0.13 0.14 0.17 0.24 0.42 0.39 0.16 0.20 0.30 0.79 0.90 0.55 0.16 0.04 0.02 0.02 0.04 0.06 0.11 0.16 0.23 0.25 0.17 0.09 0.17 0.25 0.11 0.00 0.01 0.04 0.09 0.13 0.15 0.14 0.11 0.10 0.08 0.06 0.05 0.04 0.03 0.02
0.10 0.11 0.14 0.16 0.14 0.16 0.17 0.09 0.06 0.14 0.53 0.83 0.81 0.46 0.17 0.11 0.08 0.06 0.07 0.10 0.14 0.25 0.23 0.17 0.12 0.14 0.21 0.22 0.04 0.01 0.04 0.08 0.10 0.11 0.10 0.08 0.07 0.06 0.04 0.03 0.01 0.01 0.01 0.00
0.09 0.16 0.19 0.10 0.08 0.06 0.01 0.00 0.00 0.04 0.30 0.48 0.34 0.17 0.10 0.05 0.04 0.04 0.05 0.06 0.08 0.08 0.07 0.05 0.08 0.11 0.09 0.03 0.01 0.01 0.03 0.06 0.07 0.07 0.07 0.05 0.04 0.03 0.02 0.01 0.00 0.00 0.00 0.00
0.19 0.16 0.14 0.12 0.04 0.05 0.08 0.11 0.16 0.25 0.37 0.40 0.18 0.04 0.04 0.03 0.03 0.03 0.06 0.08 0.07 0.08 0.04 0.04 0.07 0.03 0.00 0.00 0.00 0.02 0.05 0.06 0.06 0.04 0.03 0.02 0.01 0.01 0.00 0.00 0.00 0.00 0.00 0.00
0.17 0.18 0.15 0.07 0.05 0.11 0.20 0.25 0.26 0.28 0.28 0.20 0.10 0.06 0.07 0.09 0.08 0.11 0.16 0.14 0.10 0.10 0.04 0.02 0.02 0.00 0.00 0.00 0.01 0.04 0.05 0.05 0.03 0.01 0.01 0.00 0.00 0.00 0.00 0.00 0.00 0.00 0.00 0.00
0.13 0.21 0.22 0.17 0.15 0.19 0.23 0.21 0.12 0.09 0.09 0.08 0.05 0.07 0.13 0.20 0.19 0.25 0.28 0.19 0.17 0.13 0.05 0.04 0.02 0.00 0.00 0.01 0.02 0.03 0.02 0.01 0.00 0.00 0.00 0.00 0.00 0.00 0.00 0.00 0.00 0.00 0.00 0.00
0.29 0.29 0.25 0.17 0.16 0.20 0.18 0.07 0.05 0.09 0.12 0.14 0.16 0.17 0.15 0.12 0.14 0.17 0.15 0.12 0.09 0.05 0.05 0.03 0.01 0.00 0.01 0.02 0.01 0.00 0.00 0.00 0.00 0.00 0.00 0.00 0.00 0.00 0.00 0.00 0.00 0.00 0.00 0.00
0.32 0.21 0.16 0.11 0.07 0.06 0.05 0.07 0.09 0.13 0.16 0.17 0.14 0.10 0.11 0.10 0.15 0.16 0.12 0.10 0.06 0.05 0.02 0.00 0.00 0.01 0.01 0.00 0.00 0.00 0.00 0.00 0.00 0.00 0.00 0.00 0.00 0.00 0.00 0.00 0.00 0.00 0.00 0.00
0.38 0.26 0.17 0.09 0.05 0.05 0.07 0.08 0.08 0.08 0.07 0.05 0.05 0.06 0.06 0.07 0.09 0.07 0.07 0.07 0.05 0.03 0.01 0.00 0.00 0.00 0.00 0.00 0.00 0.00 0.00 0.00 0.00 0.00 0.00 0.00 0.00 0.00 0.00 0.00 0.00 0.00 0.00 0.00
0.14 0.11 0.10 0.06 0.05 0.07 0.07 0.08 0.07 0.06 0.05 0.06 0.06 0.06 0.06 0.06 0.06 0.07 0.07 0.07 0.04 0.01 0.00 0.00 0.00 0.00 0.00 0.00 0.00 0.00 0.00 0.00 0.00 0.00 0.00 0.00 0.00 0.00 0.00 0.00 0.00 0.00 0.00 0.00
0.00 0.01 0.03 0.03 0.02 0.02 0.02 0.02 0.03 0.03 0.04 0.05 0.06 0.06 0.06 0.06 0.05 0.04 0.02 0.02 0.00 0.00 0.00 0.00 0.00 0.00 0.00 0.00 0.00 0.00 0.00 0.00 0.00 0.00 0.00 0.00 0.00 0.00 0.00 0.00 0.00 0.00 0.00 0.00

GFSNW_prec_precacc12_354.txt.gz
Total_Precipitation_Accumulation
0.02 0.01 0.01 0.01 0.01 0.00 0.00 0.00 0.00 0.00 0.00 0.00 0.00 0.00 0.00 0.00 0.00 0.00 0.00 0.00 0.00 0.00 0.00 0.00 0.00 0.00 0.00 0.00 0.00 0.00 0.00 0.00 0.00 0.00 0.00 0.00 0.00 0.00 0.00 0.00 0.00 0.00 0.00 0.00
0.02 0.02 0.02 0.02 0.01 0.00 0.00 0.00 0.00 0.00 0.00 0.00 0.00 0.00 0.00 0.00 0.00 0.00 0.00 0.00 0.00 0.00 0.00 0.00 0.00 0.00 0.00 0.00 0.00 0.00 0.00 0.00 0.01 0.01 0.00 0.00 0.00 0.00 0.00 0.00 0.00 0.00 0.00 0.00
0.01 0.01 0.02 0.02 0.02 0.01 0.00 0.00 0.00 0.00 0.00 0.00 0.00 0.00 0.00 0.00 0.00 0.00 0.00 0.00 0.00 0.00 0.00 0.00 0.01 0.00 0.00 0.00 0.00 0.03 0.01 0.03 0.00 0.00 0.00 0.00 0.00 0.00 0.00 0.00 0.02 0.01 0.00 0.00
0.12 0.10 0.09 0.10 0.15 0.14 0.08 0.06 0.03 0.00 0.00 0.00 0.00 0.00 0.00 0.00 0.00 0.00 0.00 0.00 0.00 0.00 0.09 0.05 0.01 0.02 0.07 0.08 0.01 0.05 0.06 0.08 0.00 0.00 0.00 0.00 0.00 0.00 0.00 0.00 0.00 0.01 0.00 0.00
0.61 0.60 0.65 0.78 0.98 1.10 0.80 0.32 0.10 0.07 0.04 0.00 0.02 0.04 0.03 0.00 0.00 0.02 0.02 0.01 0.01 0.11 0.18 0.04 0.19 0.40 0.29 0.10 0.03 0.15 0.16 0.10 0.03 0.02 0.00 0.00 0.00 0.00 0.00 0.00 0.00 0.00 0.00 0.00
0.60 0.70 0.88 1.18 1.63 2.17 1.05 0.15 0.05 0.24 0.36 0.08 0.12 0.08 0.01 0.00 0.03 0.13 0.01 0.03 0.19 0.24 0.03 0.05 0.16 0.28 0.28 0.15 0.08 0.14 0.22 0.13 0.19 0.13 0.00 0.01 0.02 0.00 0.00 0.00 0.00 0.00 0.00 0.00
0.16 0.21 0.29 0.52 1.30 2.45 1.23 0.45 0.23 0.74 0.59 0.14 0.04 0.00 0.00 0.00 0.00 0.02 0.00 0.04 0.25 0.08 0.05 0.17 0.19 0.16 0.18 0.24 0.20 0.05 0.24 0.30 0.40 0.20 0.12 0.12 0.01 0.00 0.00 0.00 0.00 0.00 0.00 0.00
0.02 0.04 0.06 0.12 0.30 1.26 1.60 0.99 0.65 0.78 0.62 0.17 0.03 0.01 0.01 0.01 0.00 0.01 0.00 0.00 0.01 0.06 0.24 0.35 0.31 0.12 0.04 0.03 0.02 0.05 0.06 0.27 0.36 0.26 0.13 0.05 0.00 0.00 0.00 0.00 0.00 0.00 0.00 0.00
0.02 0.01 0.01 0.02 0.05 0.17 0.60 0.70 0.55 0.79 0.92 0.38 0.04 0.04 0.05 0.04 0.03 0.03 0.00 0.00 0.00 0.09 0.33 0.42 0.30 0.07 0.01 0.02 0.00 0.02 0.14 0.25 0.42 0.28 0.19 0.05 0.00 0.00 0.00 0.00 0.00 0.00 0.00 0.00
0.02 0.02 0.02 0.02 0.03 0.04 0.12 0.22 0.46 0.80 1.00 0.30 0.03 0.10 0.11 0.09 0.07 0.10 0.02 0.01 0.05 0.10 0.34 0.35 0.16 0.06 0.01 0.03 0.01 0.00 0.06 0.21 0.35 0.11 0.23 0.14 0.00 0.00 0.00 0.00 0.00 0.00 0.00 0.00
0.03 0.03 0.03 0.03 0.03 0.04 0.09 0.03 0.12 0.58 0.84 0.28 0.01 0.02 0.03 0.12 0.19 0.25 0.14 0.31 0.29 0.29 0.40 0.29 0.09 0.08 0.02 0.01 0.00 0.00 0.00 0.04 0.11 0.12 0.30 0.17 0.00 0.00 0.00 0.00 0.00 0.00 0.00 0.00
0.03 0.03 0.04 0.04 0.05 0.06 0.12 0.05 0.03 0.19 0.55 0.45 0.05 0.01 0.01 0.01 0.06 0.14 0.42 0.41 0.10 0.20 0.34 0.25 0.21 0.31 0.19 0.06 0.05 0.00 0.00 0.00 0.01 0.04 0.04 0.00 0.00 0.00 0.01 0.01 0.00 0.00 0.00 0.00
0.05 0.06 0.06 0.06 0.07 0.08 0.15 0.09 0.09 0.18 0.24 0.25 0.14 0.04 0.00 0.00 0.01 0.04 0.33 0.49 0.16 0.15 0.07 0.21 0.39 0.49 0.24 0.17 0.10 0.02 0.00 0.00 0.01 0.05 0.02 0.00 0.00 0.02 0.02 0.03 0.04 0.03 0.02 0.01
0.06 0.07 0.07 0.08 0.09 0.11 0.19 0.16 0.09 0.21 0.34 0.48 0.15 0.01 0.00 0.00 0.00 0.01 0.09 0.20 0.25 0.39 0.42 0.72 0.76 0.62 0.36 0.28 0.17 0.15 0.08 0.06 0.07 0.12 0.03 0.01 0.02 0.02 0.05 0.11 0.09 0.06 0.04 0.02
0.07 0.07 0.08 0.08 0.08 0.10 0.18 0.13 0.04 0.09 0.29 0.45 0.20 0.05 0.01 0.00 0.00 0.00 0.03 0.10 0.22 0.47 0.56 0.68 0.58 0.34 0.28 0.33 0.31 0.20 0.03 0.03 0.04 0.09 0.03 0.06 0.08 0.07 0.09 0.11 0.10 0.08 0.06 0.04
0.09 0.10 0.11 0.11 0.11 0.20 0.33 0.37 0.03 0.00 0.11 0.42 0.41 0.06 0.00 0.00 0.00 0.00 0.01 0.03 0.08 0.24 0.40 0.45 0.46 0.26 0.19 0.32 0.27 0.07 0.00 0.00 0.01 0.04 0.08 0.13 0.14 0.13 0.12 0.10 0.10 0.09 0.08 0.06
0.11 0.10 0.10 0.12 0.16 0.25 0.45 0.44 0.18 0.25 0.38 0.89 0.94 0.51 0.13 0.03 0.01 0.01 0.02 0.04 0.09 0.16 0.25 0.30 0.21 0.14 0.22 0.31 0.18 0.02 0.00 0.01 0.05 0.10 0.13 0.12 0.10 0.09 0.08 0.07 0.07 0.06 0.05 0.04
0.11 0.11 0.13 0.15 0.16 0.20 0.19 0.09 0.08 0.16 0.55 0.87 0.84 0.47 0.16 0.10 0.07 0.06 0.07 0.10 0.14 0.26 0.25 0.18 0.13 0.15 0.21 0.23 0.04 0.01 0.02 0.05 0.08 0.09 0.09 0.08 0.07 0.07 0.06 0.06 0.04 0.03 0.03 0.02
0.09 0.17 0.18 0.08 0.08 0.13 0.06 0.01 0.00 0.04 0.30 0.48 0.35 0.20 0.16 0.08 0.07 0.06 0.05 0.06 0.09 0.09 0.08 0.05 0.08 0.12 0.11 0.03 0.01 0.01 0.02 0.06 0.07 0.08 0.07 0.06 0.05 0.05 0.04 0.03 0.02 0.01 0.01 0.01
0.22 0.13 0.07 0.05 0.01 0.01 0.02 0.04 0.07 0.15 0.30 0.35 0.15 0.03 0.05 0.03 0.02 0.03 0.03 0.05 0.06 0.08 0.04 0.04 0.07 0.03 0.00 0.00 0.01 0.02 0.04 0.06 0.06 0.05 0.04 0.04 0.03 0.02 0.02 0.01 0.01 0.00 0.00 0.00
0.14 0.10 0.07 0.04 0.04 0.10 0.17 0.19 0.20 0.23 0.25 0.18 0.08 0.05 0.07 0.08 0.08 0.11 0.14 0.13 0.09 0.10 0.03 0.02 0.02 0.00 0.00 0.00 0.01 0.04 0.05 0.05 0.04 0.02 0.02 0.01 0.01 0.01 0.00 0.00 0.00 0.00 0.00 0.00
0.05 0.04 0.11 0.12 0.12 0.15 0.17 0.18 0.13 0.10 0.11 0.07 0.05 0.07 0.13 0.19 0.18 0.25 0.27 0.18 0.15 0.12 0.05 0.04 0.02 0.00 0.00 0.01 0.02 0.03 0.03 0.02 0.01 0.00 0.00 0.00 0.00 0.00 0.00 0.00 0.00 0.00 0.00 0.00
0.14 0.12 0.12 0.09 0.10 0.17 0.16 0.09 0.09 0.15 0.17 0.16 0.18 0.17 0.14 0.11 0.13 0.14 0.11 0.09 0.06 0.04 0.04 0.03 0.01 0.00 0.01 0.02 0.02 0.01 0.00 0.00 0.00 0.00 0.00 0.00 0.00 0.00 0.00 0.00 0.00 0.00 0.00 0.00
0.11 0.14 0.14 0.09 0.07 0.06 0.07 0.08 0.09 0.11 0.12 0.10 0.07 0.04 0.04 0.03 0.06 0.09 0.08 0.07 0.05 0.05 0.02 0.02 0.01 0.02 0.02 0.01 0.00 0.00 0.00 0.00 0.00 0.00 0.00 0.00 0.00 0.00 0.00 0.00 0.00 0.00 0.00 0.00
0.22 0.17 0.12 0.06 0.05 0.06 0.07 0.07 0.08 0.08 0.07 0.05 0.03 0.03 0.03 0.04 0.07 0.05 0.06 0.07 0.06 0.04 0.03 0.01 0.00 0.00 0.00 0.00 0.00 0.00 0.00 0.00 0.00 0.00 0.00 0.00 0.00 0.00 0.00 0.00 0.00 0.00 0.00 0.00
0.04 0.04 0.07 0.04 0.04 0.05 0.03 0.05 0.05 0.03 0.03 0.03 0.04 0.04 0.04 0.05 0.06 0.08 0.08 0.08 0.07 0.03 0.00 0.00 0.00 0.00 0.00 0.00 0.00 0.00 0.00 0.00 0.00 0.00 0.00 0.00 0.00 0.00 0.00 0.00 0.00 0.00 0.00 0.00
0.00 0.01 0.01 0.01 0.01 0.01 0.01 0.02 0.02 0.02 0.02 0.04 0.05 0.06 0.06 0.06 0.06 0.05 0.03 0.02 0.00 0.00 0.00 0.00 0.00 0.00 0.00 0.00 0.00 0.00 0.00 0.00 0.00 0.00 0.00 0.00 0.00 0.00 0.00 0.00 0.00 0.00 0.00 0.00